Regional Weather Roundup
Issued by NWS

Home | Current Version | Previous Version | Text Only | Print | Product List | Glossary Off
Versions: 1 2 3 4 5 6 7 8 9 10 11 12 13 14 15 16 17 18 19 20 21 22 23 24 25 26 27 28 29 30 31 32 33 34 35 36 37 38 39 40 41 42 43 44 45 46 47 48 49 50

000
ASUS44 KMEG 260500
RWRTN
TENNESSEE HOURLY STATE WEATHER ROUNDUP
NATIONAL WEATHER SERVICE MEMPHIS TN
1100 PM CST THU DEC 25 2014

TNZ002-004-019-021-049-052-054-088>092-260600-
WEST TENNESSEE

CITY           SKY/WX    TMP DP  RH WIND       PRES   REMARKS
MEMPHIS INTL   PTCLDY    44  35  70 S7        30.16R
NWS MEMPHIS      N/A     42 N/A N/A MISG        N/A
JACKSON        CLEAR     44  34  67 S9        30.17R
DYERSBURG      CLEAR     43  27  52 S7        30.17S
UNION CITY     CLEAR     37  34  87 S9        30.14R WCI  31
PARIS          CLEAR     36  32  87 S6        30.17R WCI  31
LEXINGTON      CLEAR     39  34  81 CALM      30.17S
SAVANNAH       CLEAR     39  36  87 S6        30.19S WCI  35
$$

TNZ008-025-027-028-033-062-065-066-260600-
NORTH MIDDLE TENNESSEE

CITY           SKY/WX    TMP DP  RH WIND       PRES   REMARKS
NASHVILLE      CLEAR     38  33  82 SE3       30.21S
CLARKSVILLE    CLEAR     36  32  85 SE6       30.19R WCI  31
COOKEVILLE     CLEAR     36  32  87 SW3       30.21R
CROSSVILLE     CLEAR     37  31  78 S5        30.21R WCI  33
$$

TNZ061-075-076-078-094-096-097-260600-
SOUTH MIDDLE TENNESSEE

CITY           SKY/WX    TMP DP  RH WIND       PRES   REMARKS
FAYETTEVILLE   CLEAR     36  32  87 MISG      30.20F
TULLAHOMA      CLEAR     36  32  87 S7        30.21S WCI  30
WINCHESTER     CLEAR     37  34  87 CALM      30.22F
SHELBYVILLE    CLEAR     37  34  87 SE5       30.23S WCI  34
$$

TNZ017-018-042-046-047-260600-
NORTHEAST TENNESSEE

CITY           SKY/WX    TMP DP  RH WIND       PRES   REMARKS
TRI CITIES     CLEAR     29  27  92 CALM      30.23F
ELIZABETHTON   CLEAR     30  28  93 NE9       30.23F WCI  22
$$

TNZ012-013-036-069-073-074-260600-
CENTRAL EAST TENNESSEE

CITY           SKY/WX    TMP DP  RH WIND       PRES   REMARKS
KNOXVILLE      CLEAR     34  31  88 CALM      30.24R
OAK RIDGE      CLEAR     32  30  92 CALM      30.27R
GATLINBURG     CLEAR     28  28 100 CALM      30.24R
$$

TNZ083-085-099-260600-
SOUTHEAST TENNESSEE

CITY           SKY/WX    TMP DP  RH WIND       PRES   REMARKS
CHATTANOOGA    CLEAR     34  32  92 CALM      30.26R
$$

SKY/WX REPORTED AS FAIR MEANS FEW OR NO CLOUDS BELOW
12 THOUSAND FEET.



USA.gov is the U.S. government's official web portal to all federal, state and local government web resources and services.